| time (UTC) | temp F | wind direction | speed MPH | gust MPH | rain 1hr in | rain 24hr in | rain mn in | humidity % | barometer mb |
| 20260506005010 | 50 | 30 | 0.0 | 0.0 | 0.00 | 0.11 | 0.01 | 65 | 979.9 |
| 20260506004529 | 50 | 30 | 0.0 | 0.0 | 0.00 | 0.11 | 0.01 | 65 | 980.0 |
| 20260506004008 | 50 | 30 | 0.0 | 0.0 | 0.00 | 0.11 | 0.01 | 64 | 979.9 |
| 20260506003507 | 50 | 30 | 0.0 | 0.0 | 0.00 | 0.11 | 0.01 | 66 | 979.9 |
| 20260506003004 | 50 | 30 | 0.0 | 0.0 | 0.00 | 0.11 | 0.01 | 65 | 980.0 |
| 20260506002505 | 50 | 30 | 0.0 | 0.0 | 0.00 | 0.11 | 0.01 | 66 | 980.1 |
| 20260506002003 | 50 | 30 | 0.0 | 0.0 | 0.00 | 0.11 | 0.01 | 65 | 979.8 |
| 20260506001504 | 50 | 30 | 0.0 | 0.0 | 0.00 | 0.11 | 0.01 | 66 | 979.7 |
| 20260506001004 | 50 | 30 | 0.0 | 0.0 | 0.00 | 0.11 | 0.01 | 64 | 979.8 |
| 20260506000504 | 51 | 30 | 0.0 | 0.0 | 0.00 | 0.11 | 0.01 | 64 | 979.8 |
| 20260506000005 | 51 | 30 | 0.0 | 0.0 | 0.00 | 0.11 | 0.01 | 66 | 979.9 |
| 20260505235504 | 51 | 30 | 0.0 | 0.0 | 0.00 | 0.11 | 0.01 | 67 | 979.9 |
| 20260505235003 | 51 | 30 | 0.0 | 0.0 | 0.00 | 0.11 | 0.01 | 65 | 979.8 |
| 20260505234517 | 51 | 30 | 0.0 | 0.0 | 0.00 | 0.11 | 0.01 | 66 | 979.8 |
| 20260505234004 | 51 | 30 | 0.0 | 0.0 | 0.00 | 0.11 | 0.01 | 65 | 979.8 |
| 20260505233510 | 51 | 30 | 0.0 | 0.0 | 0.00 | 0.11 | 0.01 | 64 | 979.9 |
| 20260505233018 | 51 | 30 | 0.0 | 0.0 | 0.00 | 0.11 | 0.01 | 66 | 980.0 |
| 20260505232508 | 51 | 30 | 0.0 | 0.0 | 0.00 | 0.11 | 0.01 | 64 | 980.1 |
| 20260505232007 | 51 | 30 | 0.0 | 0.0 | 0.00 | 0.11 | 0.01 | 63 | 980.1 |
| 20260505231509 | 51 | 30 | 0.0 | 0.0 | 0.00 | 0.11 | 0.01 | 62 | 980.1 |
| 20260505231003 | 52 | 30 | 0.0 | 0.0 | 0.00 | 0.11 | 0.01 | 60 | 980.3 |
| 20260505230503 | 52 | 30 | 0.0 | 0.0 | 0.00 | 0.11 | 0.01 | 59 | 980.3 |
| 20260505230008 | 52 | 31 | 0.0 | 0.0 | 0.00 | 0.11 | 0.01 | 60 | 980.5 |
| 20260505225504 | 52 | 31 | 0.0 | 0.0 | 0.00 | 0.11 | 0.01 | 59 | 980.5 |
| 20260505225005 | 52 | 31 | 0.0 | 0.0 | 0.00 | 0.11 | 0.01 | 60 | 980.5 |
| 20260505224510 | 52 | 31 | 0.0 | 0.0 | 0.00 | 0.11 | 0.01 | 56 | 980.4 |
| 20260505224006 | 52 | 31 | 0.0 | 0.0 | 0.00 | 0.11 | 0.01 | 56 | 980.5 |
| 20260505223506 | 52 | 31 | 0.0 | 0.0 | 0.00 | 0.11 | 0.01 | 56 | 980.4 |
| 20260505223014 | 52 | 31 | 0.0 | 0.0 | 0.00 | 0.11 | 0.01 | 60 | 980.4 |
| 20260505222508 | 52 | 31 | 0.0 | 0.0 | 0.00 | 0.11 | 0.01 | 58 | 980.5 |
| 20260505222006 | 53 | 31 | 0.0 | 0.0 | 0.00 | 0.11 | 0.01 | 58 | 980.4 |
| 20260505221521 | 53 | 31 | 0.0 | 0.0 | 0.00 | 0.11 | 0.01 | 56 | 980.2 |
| 20260505221006 | 53 | 31 | 0.0 | 0.0 | 0.00 | 0.11 | 0.01 | 58 | 980.1 |
| 20260505220508 | 53 | 31 | 0.0 | 0.0 | 0.00 | 0.11 | 0.01 | 57 | 980.2 |
| 20260505220033 | 53 | 31 | 0.0 | 0.0 | 0.00 | 0.11 | 0.01 | 54 | 980.3 |
| 20260505215502 | 53 | 31 | 0.0 | 0.0 | 0.00 | 0.11 | 0.01 | 55 | 980.3 |
| 20260505215003 | 53 | 31 | 0.0 | 0.0 | 0.00 | 0.11 | 0.01 | 58 | 980.3 |
| 20260505214507 | 53 | 31 | 0.0 | 0.0 | 0.00 | 0.11 | 0.01 | 54 | 980.4 |
| 20260505214003 | 53 | 31 | 0.0 | 0.0 | 0.00 | 0.11 | 0.01 | 55 | 980.4 |
| 20260505213508 | 54 | 31 | 0.0 | 0.0 | 0.00 | 0.11 | 0.01 | 58 | 980.3 |
| 20260505213008 | 54 | 31 | 0.0 | 0.0 | 0.00 | 0.11 | 0.01 | 58 | 980.3 |
| 20260505212508 | 54 | 31 | 0.0 | 0.0 | 0.00 | 0.11 | 0.01 | 55 | 980.3 |
| 20260505212012 | 54 | 31 | 0.0 | 0.0 | 0.00 | 0.11 | 0.01 | 57 | 980.4 |
| 20260505211514 | 55 | 31 | 0.0 | 0.0 | 0.00 | 0.11 | 0.01 | 54 | 980.3 |
| 20260505211006 | 55 | 31 | 0.0 | 0.0 | 0.00 | 0.11 | 0.01 | 57 | 980.3 |
| 20260505210506 | 56 | 32 | 0.0 | 0.0 | 0.00 | 0.11 | 0.01 | 56 | 980.1 |
| 20260505210022 | 56 | 32 | 0.0 | 0.0 | 0.00 | 0.11 | 0.01 | 59 | 980.0 |
| 20260505205508 | 56 | 32 | 0.0 | 0.0 | 0.00 | 0.11 | 0.01 | 59 | 980.0 |
| 20260505205010 | 56 | 32 | 0.0 | 0.0 | 0.00 | 0.11 | 0.01 | 59 | 979.8 |
| 20260505204525 | 57 | 32 | 0.0 | 0.0 | 0.00 | 0.11 | 0.01 | 60 | 979.9 |
| 20260505204006 | 57 | 32 | 0.0 | 0.0 | 0.00 | 0.11 | 0.01 | 60 | 979.8 |
| 20260505203504 | 57 | 32 | 0.0 | 0.0 | 0.00 | 0.11 | 0.01 | 61 | 979.9 |
| 20260505203010 | 57 | 32 | 0.0 | 0.0 | 0.00 | 0.11 | 0.01 | 63 | 980.1 |
| 20260505202505 | 57 | 32 | 0.0 | 0.0 | 0.00 | 0.11 | 0.01 | 60 | 980.0 |
| 20260505202005 | 58 | 32 | 0.0 | 0.0 | 0.00 | 0.11 | 0.01 | 59 | 979.8 |
| 20260505201518 | 58 | 28 | 0.0 | 0.0 | 0.00 | 0.11 | 0.01 | 60 | 979.9 |
| 20260505201005 | 58 | 28 | 0.0 | 0.0 | 0.00 | 0.11 | 0.01 | 62 | 980.0 |
| 20260505200507 | 58 | 28 | 0.0 | 0.0 | 0.00 | 0.11 | 0.01 | 60 | 979.8 |
| 20260505200019 | 58 | 29 | 0.0 | 0.0 | 0.00 | 0.11 | 0.01 | 62 | 979.9 |
| 20260505195506 | 58 | 29 | 0.0 | 0.0 | 0.00 | 0.11 | 0.01 | 61 | 980.0 |
| 20260505195009 | 58 | 28 | 0.0 | 0.0 | 0.00 | 0.11 | 0.01 | 64 | 980.0 |
| 20260505194532 | 58 | 29 | 0.0 | 0.0 | 0.00 | 0.11 | 0.01 | 61 | 980.1 |
| 20260505194008 | 57 | 28 | 0.0 | 0.0 | 0.00 | 0.11 | 0.01 | 62 | 980.1 |
| 20260505193509 | 57 | 29 | 0.0 | 0.0 | 0.00 | 0.11 | 0.01 | 64 | 980.1 |
| 20260505193036 | 57 | 28 | 0.0 | 0.0 | 0.00 | 0.11 | 0.01 | 64 | 980.2 |
| 20260505192512 | 57 | 29 | 0.0 | 0.0 | 0.00 | 0.11 | 0.01 | 62 | 980.4 |
| 20260505192003 | 57 | 29 | 0.0 | 0.0 | 0.00 | 0.11 | 0.01 | 64 | 980.6 |
| 20260505191512 | 57 | 27 | 0.0 | 0.0 | 0.00 | 0.11 | 0.01 | 64 | 980.5 |
| 20260505191003 | 57 | 34 | 0.0 | 0.0 | 0.00 | 0.11 | 0.01 | 68 | 980.6 |
| 20260505190505 | 56 | 34 | 0.0 | 0.0 | 0.00 | 0.11 | 0.01 | 67 | 980.5 |
| 20260505190017 | 56 | 36 | 0.0 | 0.0 | 0.00 | 0.11 | 0.01 | 64 | 980.5 |
| 20260505185507 | 56 | 35 | 0.0 | 0.0 | 0.00 | 0.11 | 0.01 | 67 | 980.6 |
| 20260505185006 | 56 | 34 | 0.0 | 0.0 | 0.00 | 0.11 | 0.01 | 64 | 980.5 |
| 20260505184520 | 56 | 35 | 0.0 | 0.0 | 0.00 | 0.11 | 0.01 | 65 | 980.6 |
| 20260505184009 | 56 | 34 | 0.0 | 0.0 | 0.00 | 0.11 | 0.01 | 64 | 980.6 |
| 20260505183507 | 56 | 35 | 0.0 | 0.0 | 0.00 | 0.11 | 0.01 | 65 | 980.4 |
| 20260505183026 | 57 | 36 | 0.0 | 0.0 | 0.00 | 0.11 | 0.01 | 68 | 980.4 |
| 20260505182511 | 57 | 34 | 0.0 | 0.0 | 0.00 | 0.11 | 0.01 | 65 | 980.5 |
| 20260505182013 | 56 | 34 | 0.0 | 0.0 | 0.00 | 0.11 | 0.01 | 68 | 980.4 |
| 20260505181526 | 56 | 34 | 0.0 | 0.0 | 0.00 | 0.11 | 0.01 | 68 | 980.3 |
| 20260505181010 | 56 | 32 | 0.0 | 0.0 | 0.00 | 0.11 | 0.01 | 67 | 980.2 |
| 20260505180504 | 56 | 33 | 0.0 | 0.0 | 0.00 | 0.11 | 0.01 | 67 | 980.2 |
| 20260505180013 | 56 | 33 | 0.0 | 0.0 | 0.00 | 0.11 | 0.01 | 67 | 980.2 |
| 20260505175503 | 55 | 33 | 0.0 | 0.0 | 0.00 | 0.11 | 0.01 | 68 | 980.4 |
| 20260505175003 | 55 | 33 | 0.0 | 0.0 | 0.00 | 0.11 | 0.01 | 71 | 980.4 |
| 20260505174529 | 54 | 34 | 0.0 | 0.0 | 0.00 | 0.11 | 0.01 | 70 | 980.5 |
| 20260505174006 | 54 | 34 | 0.0 | 0.0 | 0.00 | 0.11 | 0.01 | 70 | 980.4 |
| 20260505173504 | 54 | 33 | 0.0 | 0.0 | 0.00 | 0.11 | 0.01 | 70 | 980.4 |
| 20260505173020 | 54 | 33 | 0.0 | 0.0 | 0.00 | 0.11 | 0.01 | 70 | 980.4 |
| 20260505172506 | 54 | 33 | 0.0 | 0.0 | 0.00 | 0.11 | 0.01 | 73 | 980.4 |
| 20260505172008 | 54 | 33 | 0.0 | 0.0 | 0.00 | 0.11 | 0.01 | 71 | 980.4 |
| 20260505171530 | 53 | 33 | 0.0 | 0.0 | 0.00 | 0.11 | 0.01 | 74 | 980.5 |
| 20260505171006 | 53 | 34 | 0.0 | 0.0 | 0.00 | 0.11 | 0.01 | 75 | 980.5 |
| 20260505170510 | 52 | 35 | 0.0 | 0.0 | 0.00 | 0.11 | 0.01 | 76 | 980.6 |
| 20260505170028 | 51 | 34 | 0.0 | 0.0 | 0.00 | 0.11 | 0.01 | 78 | 980.5 |
| 20260505165507 | 51 | 33 | 0.0 | 0.0 | 0.00 | 0.11 | 0.01 | 78 | 980.5 |
| 20260505165006 | 50 | 33 | 0.0 | 0.0 | 0.00 | 0.11 | 0.01 | 79 | 980.5 |
| 20260505164519 | 50 | 33 | 0.0 | 0.0 | 0.00 | 0.11 | 0.01 | 78 | 980.4 |
| 20260505164010 | 49 | 33 | 0.0 | 0.0 | 0.00 | 0.11 | 0.01 | 80 | 980.5 |
| 20260505163507 | 49 | 33 | 0.0 | 0.0 | 0.00 | 0.11 | 0.01 | 81 | 980.3 |
| 20260505163022 | 49 | 34 | 0.0 | 0.0 | 0.00 | 0.11 | 0.01 | 81 | 980.3 |
| 20260505162506 | 48 | 34 | 0.0 | 0.0 | 0.00 | 0.11 | 0.01 | 81 | 980.2 |
| 20260505162007 | 48 | 34 | 0.0 | 0.0 | 0.00 | 0.11 | 0.01 | 82 | 980.3 |
| 20260505161523 | 48 | 33 | 0.0 | 0.0 | 0.00 | 0.11 | 0.01 | 80 | 980.3 |
| 20260505161007 | 48 | 33 | 0.0 | 0.0 | 0.00 | 0.11 | 0.01 | 82 | 980.4 |
| 20260505160510 | 48 | 32 | 0.0 | 0.0 | 0.00 | 0.11 | 0.01 | 81 | 980.4 |
| 20260505153022 | 48 | 34 | 0.0 | 0.0 | 0.00 | 0.11 | 0.01 | 82 | 980.2 |
| 20260505152510 | 48 | 34 | 0.0 | 0.0 | 0.00 | 0.11 | 0.01 | 82 | 980.2 |
| 20260505152010 | 48 | 34 | 0.0 | 0.0 | 0.00 | 0.11 | 0.01 | 81 | 980.4 |
| 20260505151504 | 48 | 33 | 0.0 | 0.0 | 0.00 | 0.11 | 0.01 | 81 | 980.6 |
| 20260505151002 | 48 | 34 | 0.0 | 0.0 | 0.00 | 0.11 | 0.01 | 81 | 980.8 |
| 20260505150503 | 48 | 33 | 0.0 | 0.0 | 0.00 | 0.11 | 0.01 | 80 | 980.7 |
| 20260505140510 | 51 | 34 | 0.0 | 0.0 | 0.00 | 0.11 | 0.01 | 74 | 980.0 |
| 20260505125007 | 53 | 32 | 0.0 | 0.0 | 0.00 | 0.11 | 0.01 | 69 | 977.8 |
| 20260505124524 | 53 | 33 | 0.0 | 0.0 | 0.00 | 0.11 | 0.01 | 70 | 978.0 |
| 20260505124004 | 53 | 33 | 0.0 | 0.0 | 0.00 | 0.11 | 0.01 | 71 | 978.1 |
| 20260505123503 | 53 | 33 | 0.0 | 0.0 | 0.00 | 0.11 | 0.01 | 71 | 978.0 |
| 20260505123009 | 53 | 32 | 0.0 | 0.0 | 0.00 | 0.11 | 0.01 | 71 | 978.0 |
| 20260505122503 | 52 | 34 | 0.0 | 0.0 | 0.00 | 0.11 | 0.01 | 71 | 978.0 |
| 20260505122005 | 52 | 34 | 0.0 | 0.0 | 0.00 | 0.11 | 0.01 | 71 | 977.5 |
| 20260505121515 | 52 | 34 | 0.0 | 0.0 | 0.00 | 0.11 | 0.01 | 71 | 977.3 |
| 20260505121005 | 52 | 35 | 0.0 | 0.0 | 0.00 | 0.11 | 0.01 | 72 | 977.2 |
| 20260505120507 | 52 | 34 | 0.0 | 0.0 | 0.00 | 0.11 | 0.01 | 73 | 977.3 |
| 20260505120027 | 51 | 34 | 0.0 | 0.0 | 0.00 | 0.11 | 0.01 | 73 | 977.2 |
| 20260505115509 | 51 | 34 | 0.0 | 0.0 | 0.00 | 0.11 | 0.01 | 72 | 977.1 |
| 20260505115012 | 51 | 34 | 0.0 | 0.0 | 0.00 | 0.11 | 0.01 | 72 | 977.1 |
| 20260505114524 | 51 | 34 | 0.0 | 0.0 | 0.00 | 0.11 | 0.01 | 74 | 977.0 |
| 20260505114010 | 51 | 34 | 0.0 | 0.0 | 0.00 | 0.11 | 0.01 | 75 | 977.1 |
| 20260505113508 | 51 | 34 | 0.0 | 0.0 | 0.00 | 0.11 | 0.01 | 75 | 976.7 |
| 20260505113033 | 51 | 34 | 0.0 | 0.0 | 0.00 | 0.11 | 0.01 | 74 | 976.7 |
| 20260505112507 | 51 | 33 | 0.0 | 0.0 | 0.00 | 0.11 | 0.01 | 75 | 976.7 |
| 20260505112006 | 52 | 33 | 0.0 | 0.0 | 0.00 | 0.11 | 0.01 | 74 | 976.7 |
| 20260505111508 | 52 | 33 | 0.0 | 0.0 | 0.00 | 0.11 | 0.01 | 74 | 976.6 |
| 20260505111002 | 52 | 33 | 0.0 | 0.0 | 0.00 | 0.11 | 0.01 | 75 | 976.9 |
| 20260505110505 | 52 | 33 | 0.0 | 0.0 | 0.00 | 0.11 | 0.01 | 75 | 977.0 |
| 20260505102006 | 54 | 34 | 0.0 | 0.0 | 0.00 | 0.11 | 0.01 | 92 | 976.0 |
| 20260505101532 | 54 | 34 | 0.0 | 0.0 | 0.00 | 0.11 | 0.01 | 92 | 975.9 |
| 20260505101010 | 54 | 34 | 0.0 | 0.0 | 0.00 | 0.11 | 0.01 | 91 | 975.8 |
| 20260505100503 | 54 | 34 | 0.0 | 0.0 | 0.00 | 0.11 | 0.01 | 91 | 975.7 |
| 20260505100012 | 54 | 34 | 0.0 | 0.0 | 0.00 | 0.11 | 0.01 | 91 | 975.6 |
| 20260505095505 | 54 | 33 | 0.0 | 0.0 | 0.00 | 0.11 | 0.01 | 91 | 975.4 |
| 20260505095004 | 55 | 33 | 0.0 | 0.0 | 0.00 | 0.11 | 0.01 | 91 | 975.3 |
| 20260505094517 | 55 | 33 | 0.0 | 0.0 | 0.00 | 0.11 | 0.01 | 91 | 975.3 |
| 20260505094006 | 55 | 33 | 0.0 | 0.0 | 0.00 | 0.11 | 0.01 | 91 | 975.2 |
| 20260505093512 | 55 | 33 | 0.0 | 0.0 | 0.00 | 0.11 | 0.01 | 91 | 975.1 |
| 20260505093022 | 55 | 33 | 0.0 | 0.0 | 0.00 | 0.11 | 0.01 | 90 | 975.0 |
| 20260505092510 | 55 | 33 | 0.0 | 0.0 | 0.00 | 0.11 | 0.01 | 90 | 975.2 |
| 20260505092008 | 55 | 33 | 0.0 | 0.0 | 0.00 | 0.11 | 0.01 | 90 | 975.1 |
| 20260505091532 | 55 | 33 | 0.0 | 0.0 | 0.00 | 0.11 | 0.01 | 90 | 975.0 |
| 20260505091011 | 55 | 33 | 0.0 | 0.0 | 0.00 | 0.11 | 0.01 | 90 | 975.2 |
| 20260505090508 | 55 | 33 | 0.0 | 0.0 | 0.00 | 0.11 | 0.01 | 90 | 975.3 |
| 20260505090030 | 55 | 33 | 0.0 | 0.0 | 0.00 | 0.11 | 0.01 | 90 | 975.3 |
| 20260505085507 | 55 | 33 | 0.0 | 0.0 | 0.00 | 0.11 | 0.01 | 90 | 974.9 |
| 20260505085015 | 56 | 33 | 0.0 | 0.0 | 0.00 | 0.11 | 0.01 | 89 | 974.8 |
| 20260505084517 | 56 | 34 | 0.0 | 0.0 | 0.00 | 0.11 | 0.01 | 89 | 975.0 |
| 20260505084005 | 56 | 33 | 0.0 | 0.0 | 0.00 | 0.11 | 0.01 | 89 | 975.0 |
| 20260505083505 | 56 | 33 | 0.0 | 0.0 | 0.00 | 0.11 | 0.01 | 89 | 975.0 |
| 20260505083021 | 56 | 34 | 0.0 | 0.0 | 0.00 | 0.11 | 0.01 | 89 | 975.0 |
| 20260505082507 | 56 | 34 | 0.0 | 0.0 | 0.00 | 0.11 | 0.01 | 89 | 975.1 |
| 20260505082007 | 56 | 33 | 0.0 | 0.0 | 0.00 | 0.11 | 0.01 | 89 | 975.1 |
| 20260505081526 | 56 | 33 | 0.0 | 0.0 | 0.00 | 0.11 | 0.01 | 89 | 975.0 |
| 20260505081014 | 56 | 34 | 0.0 | 0.0 | 0.00 | 0.11 | 0.01 | 89 | 974.8 |
| 20260505080513 | 56 | 34 | 0.0 | 0.0 | 0.00 | 0.11 | 0.01 | 89 | 974.8 |
| 20260505080034 | 56 | 34 | 0.0 | 0.0 | 0.00 | 0.11 | 0.01 | 89 | 974.9 |
| 20260505075506 | 56 | 33 | 0.0 | 0.0 | 0.00 | 0.11 | 0.01 | 89 | 974.8 |
| 20260505075016 | 56 | 33 | 0.0 | 0.0 | 0.00 | 0.11 | 0.01 | 90 | 974.9 |
| 20260505074527 | 56 | 33 | 0.0 | 0.0 | 0.00 | 0.11 | 0.01 | 90 | 974.8 |
| 20260505074009 | 56 | 33 | 0.0 | 0.0 | 0.00 | 0.11 | 0.01 | 90 | 974.9 |
| 20260505073510 | 56 | 33 | 0.0 | 0.0 | 0.00 | 0.11 | 0.01 | 90 | 974.9 |
| 20260505073017 | 56 | 33 | 0.0 | 0.0 | 0.00 | 0.11 | 0.01 | 90 | 974.8 |
| 20260505072507 | 56 | 33 | 0.0 | 0.0 | 0.00 | 0.11 | 0.01 | 90 | 974.6 |
| 20260505072007 | 56 | 33 | 0.0 | 0.0 | 0.00 | 0.11 | 0.01 | 89 | 974.4 |
| 20260505071520 | 56 | 33 | 0.0 | 0.0 | 0.00 | 0.11 | 0.01 | 89 | 974.3 |
| 20260505071011 | 56 | 33 | 0.0 | 0.0 | 0.00 | 0.11 | 0.01 | 89 | 974.2 |
| 20260505070510 | 56 | 33 | 0.0 | 0.0 | 0.00 | 0.11 | 0.01 | 89 | 974.2 |
| 20260505070028 | 56 | 33 | 0.0 | 0.0 | 0.00 | 0.11 | 0.01 | 89 | 974.1 |
| 20260505065509 | 56 | 34 | 0.0 | 0.0 | 0.00 | 0.11 | 0.01 | 89 | 973.9 |
| 20260505065007 | 56 | 34 | 0.0 | 0.0 | 0.00 | 0.11 | 0.01 | 89 | 973.8 |
| 20260505064545 | 56 | 34 | 0.0 | 0.0 | 0.00 | 0.11 | 0.01 | 89 | 973.8 |
| 20260505064007 | 56 | 34 | 0.0 | 0.0 | 0.00 | 0.11 | 0.01 | 89 | 973.7 |
| 20260505063504 | 57 | 34 | 0.0 | 0.0 | 0.00 | 0.11 | 0.01 | 89 | 973.5 |
| 20260505063009 | 57 | 34 | 0.0 | 0.0 | 0.00 | 0.11 | 0.01 | 89 | 973.5 |
| 20260505062503 | 57 | 34 | 0.0 | 0.0 | 0.00 | 0.11 | 0.01 | 89 | 973.5 |
| 20260505062002 | 57 | 34 | 0.0 | 0.0 | 0.00 | 0.11 | 0.01 | 89 | 973.4 |
| 20260505061504 | 57 | 34 | 0.0 | 0.0 | 0.00 | 0.11 | 0.01 | 89 | 973.4 |
| 20260505061007 | 57 | 34 | 0.0 | 0.0 | 0.00 | 0.11 | 0.01 | 89 | 973.6 |
| 20260505060504 | 57 | 34 | 0.0 | 0.0 | 0.00 | 0.11 | 0.01 | 89 | 973.4 |
| 20260505060005 | 57 | 34 | 0.0 | 0.0 | 0.01 | 0.11 | 0.01 | 89 | 973.8 |
| 20260505055505 | 57 | 34 | 0.0 | 0.0 | 0.01 | 0.11 | 0.01 | 89 | 973.5 |
| 20260505055003 | 57 | 34 | 0.0 | 0.0 | 0.01 | 0.11 | 0.01 | 89 | 973.4 |
| 20260505054506 | 57 | 34 | 0.0 | 0.0 | 0.01 | 0.11 | 0.01 | 89 | 973.5 |
| 20260505054003 | 57 | 33 | 0.0 | 0.0 | 0.01 | 0.11 | 0.01 | 89 | 973.6 |
| 20260505053503 | 57 | 33 | 0.0 | 0.0 | 0.01 | 0.11 | 0.01 | 89 | 973.7 |
| 20260505053007 | 57 | 30 | 0.0 | 0.0 | 0.01 | 0.11 | 0.01 | 89 | 973.5 |
| 20260505052503 | 57 | 32 | 0.0 | 0.0 | 0.01 | 0.11 | 0.01 | 89 | 973.8 |
| 20260505052005 | 57 | 32 | 0.0 | 0.0 | 0.01 | 0.11 | 0.01 | 89 | 973.4 |
| 20260505051512 | 57 | 32 | 0.0 | 0.0 | 0.01 | 0.11 | 0.01 | 89 | 973.1 |
| 20260505051004 | 57 | 32 | 0.0 | 0.0 | 0.01 | 0.11 | 0.01 | 89 | 973.2 |
| 20260505050503 | 57 | 33 | 0.0 | 0.0 | 0.01 | 0.11 | 0.01 | 90 | 973.4 |
| 20260505041519 | 57 | 33 | 0.0 | 0.0 | 0.05 | 0.10 | 0.00 | 90 | 973.4 |
| 20260505041004 | 57 | 33 | 0.0 | 0.0 | 0.05 | 0.10 | 0.00 | 90 | 973.6 |
| 20260505040504 | 57 | 34 | 0.0 | 0.0 | 0.06 | 0.10 | 0.00 | 90 | 973.9 |
| 20260505040015 | 57 | 34 | 0.0 | 0.0 | 0.06 | 0.10 | 0.00 | 91 | 974.0 |
| 20260505035503 | 58 | 33 | 0.0 | 0.0 | 0.06 | 0.10 | 0.10 | 90 | 974.0 |
| 20260505035002 | 58 | 34 | 0.0 | 0.0 | 0.06 | 0.09 | 0.09 | 90 | 973.9 |
| 20260505034503 | 58 | 34 | 0.0 | 0.0 | 0.07 | 0.09 | 0.09 | 90 | 974.0 |
| 20260505034003 | 58 | 34 | 0.0 | 0.0 | 0.08 | 0.08 | 0.08 | 90 | 974.0 |
| 20260505033503 | 58 | 34 | 0.0 | 0.0 | 0.07 | 0.07 | 0.07 | 89 | 974.0 |
| 20260505033004 | 58 | 34 | 0.0 | 0.0 | 0.07 | 0.07 | 0.07 | 89 | 974.1 |
| 20260505032503 | 58 | 34 | 0.0 | 0.0 | 0.06 | 0.06 | 0.06 | 89 | 974.2 |
| 20260505032004 | 58 | 34 | 0.0 | 0.0 | 0.06 | 0.06 | 0.06 | 89 | 974.1 |
| 20260505031507 | 58 | 34 | 0.0 | 0.0 | 0.05 | 0.05 | 0.05 | 88 | 974.3 |
| 20260505031003 | 58 | 34 | 0.0 | 0.0 | 0.05 | 0.05 | 0.05 | 88 | 974.7 |
| 20260505030504 | 58 | 34 | 0.0 | 0.0 | 0.04 | 0.04 | 0.04 | 88 | 974.9 |
| 20260505030015 | 59 | 34 | 0.0 | 0.0 | 0.04 | 0.04 | 0.04 | 87 | 974.3 |
| 20260505025506 | 59 | 34 | 0.0 | 0.0 | 0.04 | 0.04 | 0.04 | 86 | 974.4 |
| 20260505025006 | 60 | 34 | 0.0 | 0.0 | 0.03 | 0.03 | 0.03 | 85 | 974.8 |
| 20260505024534 | 61 | 37 | 0.0 | 0.0 | 0.02 | 0.02 | 0.02 | 83 | 975.0 |
| 20260505024006 | 62 | 37 | 0.0 | 0.0 | 0.00 | 0.00 | 0.00 | 81 | 975.0 |
| 20260505023503 | 64 | 39 | 0.0 | 0.0 | 0.00 | 0.00 | 0.00 | 78 | 974.6 |
| 20260505023003 | 64 | 34 | 0.0 | 0.0 | 0.00 | 0.00 | 0.00 | 77 | 973.6 |
| 20260505022506 | 65 | 32 | 0.0 | 0.0 | 0.00 | 0.00 | 0.00 | 76 | 973.5 |
| 20260505022004 | 65 | 34 | 0.0 | 0.0 | 0.00 | 0.00 | 0.00 | 75 | 973.3 |
| 20260505021508 | 66 | 34 | 0.0 | 0.0 | 0.00 | 0.00 | 0.00 | 73 | 973.1 |
| 20260505021004 | 66 | 35 | 0.0 | 0.0 | 0.00 | 0.00 | 0.00 | 72 | 973.0 |
| 20260505020502 | 67 | 37 | 0.0 | 0.0 | 0.00 | 0.00 | 0.00 | 71 | 973.2 |
| 20260505020011 | 68 | 34 | 0.0 | 0.0 | 0.00 | 0.00 | 0.00 | 69 | 973.1 |
| 20260505015511 | 68 | 34 | 0.0 | 0.0 | 0.00 | 0.00 | 0.00 | 66 | 972.6 |
| 20260505015003 | 68 | 34 | 0.0 | 0.0 | 0.00 | 0.00 | 0.00 | 64 | 972.3 |
| 20260505014515 | 68 | 34 | 0.0 | 0.0 | 0.00 | 0.00 | 0.00 | 64 | 972.1 |
| 20260505014004 | 68 | 34 | 0.0 | 0.0 | 0.00 | 0.00 | 0.00 | 65 | 972.1 |
| 20260505013508 | 68 | 34 | 0.0 | 0.0 | 0.00 | 0.00 | 0.00 | 66 | 972.3 |
| 20260505013023 | 68 | 34 | 0.0 | 0.0 | 0.00 | 0.00 | 0.00 | 65 | 972.3 |
| 20260505012506 | 68 | 34 | 0.0 | 0.0 | 0.00 | 0.00 | 0.00 | 65 | 972.4 |
| 20260505012003 | 69 | 34 | 0.0 | 0.0 | 0.00 | 0.00 | 0.00 | 66 | 972.4 |
| 20260505011506 | 69 | 34 | 0.0 | 0.0 | 0.00 | 0.00 | 0.00 | 66 | 972.4 |
| 20260505011005 | 69 | 37 | 0.0 | 0.0 | 0.00 | 0.00 | 0.00 | 64 | 972.1 |
| 20260505010504 | 70 | 36 | 0.0 | 0.0 | 0.00 | 0.00 | 0.00 | 63 | 972.0 |
| 20260505010009 | 70 | 30 | 0.0 | 0.0 | 0.00 | 0.00 | 0.00 | 63 | 971.9 |
| 20260505005504 | 70 | 36 | 0.0 | 0.0 | 0.00 | 0.00 | 0.00 | 63 | 971.8 |